Vorticity
7 12 17 17 11 5 3 3 3 4 5 4 3 3 3 -1 -2 -0 5 5 5 4 5 4 2 3 5 6 5 7 12 14 8 4 2 2 3 9 3 4 4 4 4
19 15 17 15 16 9 5 4 4 3 3 3 4 4 4 2 -2 -1 1 5 6 6 4 1 4 4 5 5 4 5 2 3 11 16 13 9 7 5 5 4 4 4 5
17 23 21 19 17 13 11 5 5 3 4 3 3 3 3 3 4 1 3 5 7 7 6 3 2 5 -4 3 10 7 2 6 6 11 15 18 8 4 1 3 4 5 4
20 20 26 20 22 19 16 14 8 4 4 4 3 2 2 2 2 3 7 1 2 7 8 6 4 3 2 4 1 4 -2 4 -9 -7 -1 13 18 6 -1 5 3 4 5
21 14 17 26 21 15 19 28 20 15 13 7 5 5 5 5 5 5 3 0 4 5 11 9 5 10 5 2 5 22 -5 11 9 14 -2 2 7 23 12 -4 3 4 3
27 22 17 15 17 16 17 17 21 22 17 16 18 16 12 9 5 3 2 1 4 9 -1 12 11 4 3 7 -1 8 19 16 15 -0 -2 7 4 9 17 14 27 17 -2
7 22 18 17 19 17 19 21 17 17 15 14 15 16 16 15 14 14 11 9 9 7 9 4 3 7 5 3 6 -5 17 2 -1 5 14 13 3 -5 0 -17 -19 4 46
17 6 3 7 8 5 9 8 12 8 15 17 18 12 12 14 14 15 11 12 11 8 6 11 2 6 5 5 4 8 -9 -2 -18 13 -12 -3 11 22 -16 1 4 2 -3
49 29 10 3 -0 7 11 17 17 12 11 8 6 13 14 24 17 11 11 13 9 13 9 8 8 3 6 4 5 2 4 -5 -7 3 2 -7 14 1 9 15 6 0 7
31 39 43 54 53 47 50 46 40 76 58 49 25 28 26 26 25 25 22 15 12 9 10 11 11 4 5 5 3 6 10 8 6 6 -5 -2 4 10 -3 -1 7 10 -3
15 9 7 39 11 -0 19 22 19 -2 12 18 19 26 29 33 27 28 25 28 27 13 12 11 9 13 5 5 7 5 3 8 7 4 5 6 -3 0 9 13 16 8 0
30 21 14 13 12 -10 17 13 7 9 -15 52 41 28 34 33 25 33 32 29 32 31 18 20 11 7 11 7 2 7 9 13 7 4 9 11 -9 -10 7 1 3 5 -6
18 21 -1 20 11 14 20 25 9 8 22 4 71 37 21 27 26 48 48 39 45 24 27 20 15 10 10 10 8 5 3 8 -3 3 2 5 20 12 6 11 16 6 1
-6 15 1 27 26 25 5 13 39 25 2 23 -9 57 47 30 35 15 14 32 27 48 26 21 24 16 13 8 6 5 10 10 13 4 11 5 2 0 8 2 9 -10 17
9 19 5 6 -3 12 -2 18 30 39 23 -7 16 -5 -2 57 36 20 12 21 42 40 38 20 20 18 13 13 14 10 11 14 14 9 -1 6 2 4 6 14 22 16 23
-10 -6 20 -9 -1 1 -11 13 39 21 17 21 9 33 11 -7 -2 11 6 15 26 49 46 33 26 18 11 13 19 16 15 10 -0 7 12 8 18 26 -6 28 17 17 16
-1 5 1 9 11 11 12 -2 -4 24 27 -1 33 25 33 19 30 -14 -29 -2 0 -4 25 32 30 22 17 12 18 13 14 10 14 4 22 15 12 37 20 17 2 3 18
6 10 22 15 6 19 15 8 20 10 12 -6 -2 7 51 2 32 12 -24 9 21 5 23 -3 11 7 11 8 26 11 -1 8 18 59 41 27 24 21 16 16 19 16 18
34 23 21 25 22 18 -1 9 9 21 31 15 19 17 4 12 37 -8 22 3 25 19 52 14 29 33 33 23 28 26 37 32 17 -4 15 -4 -2 5 5 27 29 23 35
0 3 2 5 7 4 8 10 10 7 9 -2 -1 -2 -2 3 7 7 3 -4 0 2 -0 -1 -2 1 -2 1 3 -6 -6 1 6 -4 -5 -6 -7 -13 -20 -19 -4 16 11
2 3 3 4 4 4 4 3 2 2 4 4 4 3 4 3 4 2 2 1 1 2 -0 -2 1 -1 -3 -3 -4 -6 -5 -4 -6 -9 -5 3 7 10 9 6 3 -0 -3
6 6 5 6 3 4 3 4 5 5 5 4 3 3 3 2 1 3 3 3 3 2 2 3 3 3 1 0 0 2 4 3 5 5 3 -4 -1 6 4 7 9 9 9
3 2 2 -0 0 1 2 3 4 5 4 3 4 3 -0 -1 -1 0 -0 1 0 -1 -0 -0 1 2 2 -1 2 3 1 0 -2 -2 1 0 -4 -1 2 7 7 6 11
6 5 4 3 2 1 3 5 5 5 6 5 4 4 4 3 3 2 2 2 1 2 1 2 2 3 2 4 3 4 3 2 2 5 2 3 3 -2 -4 4 7 9 11
1 1 5 4 4 4 3 3 4 5 5 5 4 3 4 4 4 4 5 5 5 4 3 0 2 3 3 4 5 6 5 6 4 0 5 8 -0 1 -3 5 7 14 24
6 6 7 8 9 7 5 5 5 2 1 4 5 4 6 5 4 5 6 4 4 6 6 9 9 6 6 2 4 7 9 10 13 4 4 9 4 3 2 4 15 32 40
Height
5708 5710 5714 5720 5726 5733 5738 5744 5750 5754 5759 5764 5769 5774 5778 5783 5787 5790 5795 5799 5804 5807 5811 5814 5815 5819 5821 5825 5827 5829 5829 5830 5832 5834 5838 5838 5839 5841 5841 5841 5839 5839 5838
5689 5692 5697 5702 5708 5714 5721 5727 5734 5739 5744 5749 5754 5759 5764 5769 5774 5778 5781 5784 5789 5795 5800 5805 5807 5810 5812 5816 5819 5822 5823 5823 5824 5826 5827 5831 5833 5834 5834 5834 5833 5832 5831
5674 5675 5678 5684 5689 5697 5703 5711 5717 5723 5728 5732 5737 5743 5748 5754 5760 5766 5771 5774 5778 5782 5788 5793 5799 5800 5801 5807 5810 5813 5815 5816 5817 5819 5820 5821 5826 5826 5826 5827 5826 5826 5825
5659 5660 5661 5666 5674 5680 5686 5692 5699 5706 5712 5716 5721 5726 5731 5737 5744 5750 5756 5761 5764 5769 5774 5781 5788 5790 5792 5796 5800 5803 5806 5807 5810 5810 5814 5815 5817 5818 5818 5819 5819 5819 5818
5648 5649 5650 5653 5658 5666 5671 5675 5680 5686 5692 5698 5704 5708 5714 5720 5723 5729 5736 5743 5750 5753 5758 5765 5773 5778 5781 5786 5790 5792 5797 5799 5801 5804 5805 5807 5808 5809 5810 5811 5810 5810 5809
5636 5638 5639 5642 5647 5651 5656 5661 5665 5669 5673 5677 5684 5690 5694 5697 5702 5708 5714 5723 5731 5738 5743 5750 5757 5763 5769 5774 5778 5784 5786 5789 5792 5793 5796 5800 5800 5801 5800 5801 5802 5800 5798
5624 5625 5628 5631 5636 5640 5643 5646 5650 5653 5655 5659 5663 5666 5670 5674 5681 5686 5693 5699 5708 5717 5726 5732 5739 5748 5756 5762 5767 5772 5776 5779 5782 5786 5788 5790 5791 5792 5791 5791 5790 5788 5787
5613 5614 5617 5620 5624 5627 5629 5631 5634 5636 5637 5639 5642 5644 5646 5650 5656 5663 5669 5673 5684 5694 5705 5714 5723 5732 5739 5747 5755 5760 5765 5769 5773 5775 5779 5781 5782 5781 5781 5782 5780 5779 5776
5603 5606 5609 5612 5615 5617 5618 5619 5620 5621 5622 5623 5622 5622 5622 5625 5632 5636 5642 5652 5661 5672 5683 5692 5703 5712 5722 5730 5739 5745 5752 5759 5763 5767 5770 5771 5772 5771 5772 5771 5769 5769 5767
5602 5601 5603 5606 5608 5608 5606 5608 5610 5612 5610 5605 5599 5598 5600 5603 5608 5612 5619 5628 5638 5649 5661 5672 5683 5695 5705 5714 5724 5733 5742 5748 5753 5757 5759 5760 5760 5759 5759 5759 5758 5757 5756
5608 5606 5606 5606 5606 5607 5606 5604 5604 5604 5601 5591 5582 5581 5580 5581 5583 5587 5596 5604 5617 5629 5642 5655 5668 5681 5692 5703 5714 5722 5731 5738 5742 5745 5747 5749 5747 5747 5747 5747 5745 5744 5744
5612 5611 5609 5608 5607 5607 5605 5604 5603 5599 5593 5582 5571 5565 5563 5564 5567 5571 5574 5580 5591 5607 5623 5638 5653 5670 5684 5694 5703 5713 5719 5725 5730 5734 5734 5737 5736 5735 5734 5734 5733 5732 5729
5618 5615 5613 5610 5608 5608 5605 5601 5597 5592 5588 5581 5565 5561 5559 5558 5558 5557 5561 5568 5577 5590 5606 5624 5644 5659 5673 5684 5693 5700 5708 5712 5717 5721 5723 5726 5724 5723 5722 5720 5719 5717 5715
5625 5621 5619 5613 5609 5607 5605 5598 5591 5585 5584 5580 5573 5562 5557 5554 5550 5552 5559 5563 5571 5582 5596 5614 5635 5652 5664 5674 5683 5689 5696 5702 5709 5711 5712 5712 5710 5708 5707 5704 5703 5704 5701
5630 5627 5624 5619 5614 5610 5605 5597 5588 5583 5580 5580 5576 5568 5559 5555 5553 5556 5560 5565 5571 5580 5595 5612 5629 5645 5659 5667 5675 5683 5691 5695 5699 5698 5698 5698 5694 5695 5692 5690 5691 5691 5689
5634 5631 5628 5624 5620 5615 5610 5602 5594 5589 5587 5584 5578 5572 5568 5562 5561 5560 5562 5569 5578 5589 5601 5615 5629 5642 5653 5664 5671 5677 5681 5683 5683 5683 5683 5683 5682 5680 5677 5676 5674 5675 5674
5639 5637 5633 5629 5624 5621 5616 5611 5602 5598 5595 5590 5585 5580 5577 5573 5570 5572 5576 5580 5591 5601 5613 5623 5633 5643 5652 5658 5663 5666 5668 5669 5672 5673 5673 5674 5671 5668 5667 5666 5665 5665 5664
5643 5640 5637 5632 5630 5626 5621 5617 5612 5608 5605 5600 5596 5593 5587 5584 5583 5584 5589 5596 5606 5612 5623 5629 5636 5643 5647 5652 5656 5660 5663 5663 5666 5665 5664 5662 5660 5658 5657 5657 5654 5653 5651
5647 5646 5643 5639 5635 5634 5632 5626 5621 5617 5613 5611 5607 5602 5599 5595 5596 5598 5604 5610 5615 5619 5624 5628 5634 5639 5643 5647 5649 5652 5656 5658 5657 5658 5655 5654 5653 5651 5650 5648 5644 5639 5635
5654 5653 5651 5647 5644 5642 5640 5635 5631 5629 5629 5626 5622 5619 5617 5617 5619 5621 5623 5625 5628 5631 5634 5639 5641 5645 5648 5650 5651 5652 5653 5652 5652 5650 5649 5647 5645 5643 5639 5635 5632 5628 5624
5660 5658 5657 5654 5651 5649 5647 5642 5641 5638 5639 5636 5634 5631 5630 5629 5629 5630 5632 5634 5636 5638 5640 5642 5644 5646 5646 5649 5649 5648 5647 5645 5644 5642 5641 5638 5635 5631 5627 5622 5618 5614 5610
5665 5663 5661 5658 5658 5655 5653 5650 5648 5645 5645 5644 5642 5640 5639 5638 5638 5638 5638 5640 5641 5641 5642 5643 5644 5644 5645 5645 5642 5639 5638 5637 5635 5632 5628 5624 5619 5615 5611 5605 5599 5593 5588
5668 5666 5664 5663 5661 5659 5657 5655 5653 5651 5650 5648 5647 5645 5643 5642 5641 5641 5641 5640 5640 5640 5640 5639 5639 5638 5636 5635 5634 5632 5629 5625 5622 5618 5614 5609 5603 5597 5591 5584 5577 5569 5562
5671 5670 5668 5666 5665 5663 5660 5658 5656 5654 5652 5651 5649 5648 5646 5645 5643 5642 5641 5640 5639 5638 5636 5634 5632 5630 5629 5626 5623 5620 5616 5612 5607 5603 5598 5592 5586 5580 5573 5564 5553 5544 5535
5673 5671 5669 5667 5665 5662 5661 5659 5657 5655 5652 5651 5648 5647 5645 5643 5642 5641 5639 5638 5636 5634 5632 5629 5627 5624 5621 5618 5615 5612 5607 5602 5598 5592 5586 5579 5572 5563 5553 5542 5530 5517 5503
5672 5671 5669 5666 5664 5662 5660 5658 5655 5653 5651 5649 5646 5644 5642 5640 5638 5636 5634 5632 5630 5627 5624 5621 5618 5614 5610 5606 5603 5598 5594 5589 5584 5578 5570 5561 5552 5541 5528 5514 5499 5482 5471